Skip Page Navigation
NASA JPL Caltech
NASA Logo - Jet Propulsion Laboratory + View the NASA Portal
+ Center for Near-Earth Object Studies
JPL Home Earth Solar System Stars & Galaxies Technology
JPL Solar System Dynamics
BODIES ORBITS EPHEMERIDES TOOLS PHYSICAL DATA DISCOVERY FAQ SITE MAP
IMPORTANT: The SSD Announcement email list is now available. Major changes are coming in the near future, including possible hostname and/or URL changes. To be notified of such changes, subscribe to this email list.

Please visit this page for more details.


JPL Small-Body Database Browser
Search: [ help ]  
14376 (1989 ST10)
Classification: Main-belt Asteroid          SPK-ID: 2014376
Ephemeris | Orbit Diagram | Orbital Elements | Mission Design | Physical Parameters | Discovery Circumstances ]

[ show orbit diagram ]
Orbital Elements at Epoch 2459000.5 (2020-May-31.0) TDB
Reference: JPL 31 (heliocentric ecliptic J2000)
 Element Value Uncertainty (1-sigma)   Units 
e .2010371131296487 3.5069e-08  
a 2.554121072681242 1.1228e-08 au
q 2.040647945645804 8.9618e-08 au
i 9.15437043435459 3.4704e-06 deg
node 175.8068395202517 2.5228e-05 deg
peri 135.6474472072474 2.7189e-05 deg
M 216.9575120440566 1.2539e-05 deg
tp 2459592.911119637023
(2022-Jan-13.41111964)
5.3477e-05 TDB
period 1490.941650392812
4.08
9.831e-06
2.692e-08
d
yr
n .241458141507518 1.5921e-09 deg/d
Q 3.067594199716681 1.3485e-08 au
  Orbit Determination Parameters
   # obs. used (total)      1975  
   data-arc span      14000 days (38.33 yr)  
   first obs. used      1981-10-06  
   last obs. used      2020-02-04  
   planetary ephem.      DE431  
   SB-pert. ephem.      SB431-N16  
   condition code      0  
   norm. resid. RMS      .47978  
   source      ORB  
   producer      Otto Matic  
   solution date      2020-Feb-22 20:56:17  

Additional Information
 Earth MOID = 1.03854 au 
 Jupiter MOID = 2.28478 au 
 T_jup = 3.392 
[ show covariance matrix ]

Ephemeris | Orbit Diagram | Orbital Elements | Mission Design | Physical Parameters | Discovery Circumstances ]

Physical Parameter Table
Parameter Symbol Value Units Sigma Reference Notes
absolute magnitude H 13.3   n/a MPO502278  
rotation period rot_per 5.614 h n/a LCDB (Rev. 2019-August); Warner et al., 2009 Published Reference List:
[Behrend, R. (2001) Observatoire de Geneve web site, http://obswww.unige.ch/~behrend/page_cou.html]
[Durech, J.; Hanus, J. (2018) Astron. Astrophys. 620, A91.]

14376 (1989 ST10)          Discovered 1989-Sep-28 by Debehogne, H. at La Silla
Reference: 20000418/Numbers.arcLast Updated: 2004-04-19

Alternate Designations
 1989 ST10 = 1981 TX2 = 1981 UQ19 = 1988 GM2 = 2000 CF63 
Ephemeris | Orbit Diagram | Orbital Elements | Mission Design | Physical Parameters | Discovery Circumstances ]
ABOUT SSD CREDITS/AWARDS PRIVACY/COPYRIGHT GLOSSARY LINKS
FirstGov 2020-Apr-07 05:26 UT
(server date/time)  
NASA Home Page
Site Manager:   Ryan S. Park
Webmaster  Alan B. Chamberlin